Time,TemperatureF,DewpointF,PressureIn,WindDirection,WindDirectionDegrees,WindSpeedMPH,WindSpeedGustMPH,Humidity,HourlyPrecipIn,Conditions,Clouds,dailyrainin,SoftwareType,DateUTC
2013-02-07 00:00:00,38.5,16.2,30.13,NE,37,2.0,3.0,40,0.00,CLR,,0.00,WeatherDisplay:10.37,2013-02-07 05:00:00,
2013-02-07 00:10:00,38.7,15.8,30.13,NE,36,2.0,5.0,39,0.00,CLR,,0.00,WeatherDisplay:10.37,2013-02-07 05:10:00,
2013-02-07 00:20:00,38.7,15.8,30.16,NE,55,2.0,5.0,39,0.00,CLR,,0.00,WeatherDisplay:10.37,2013-02-07 05:20:00,
2013-02-07 00:30:00,38.1,15.9,30.16,ENE,64,1.0,3.0,40,0.00,CLR,,0.00,WeatherDisplay:10.37,2013-02-07 05:30:00,
2013-02-07 00:40:00,37.4,15.2,30.13,North,2,0.0,2.0,40,0.00,CLR,,0.00,WeatherDisplay:10.37,2013-02-07 05:40:00,
2013-02-07 00:50:00,36.8,15.3,30.13,WNW,297,0.0,1.0,41,0.00,CLR,,0.00,WeatherDisplay:10.37,2013-02-07 05:50:00,
2013-02-07 01:00:00,37.0,16.0,30.13,North,5,2.0,3.0,42,0.00,CLR,,0.00,WeatherDisplay:10.37,2013-02-07 06:00:00,
2013-02-07 01:10:00,37.6,16.0,30.13,NE,52,1.0,5.0,41,0.00,CLR,,0.00,WeatherDisplay:10.37,2013-02-07 06:10:00,
2013-02-07 01:20:00,37.0,15.5,30.13,WNW,303,0.0,2.0,41,0.00,CLR,,0.00,WeatherDisplay:10.37,2013-02-07 06:20:00,
2013-02-07 01:30:00,36.7,15.2,30.13,West,259,0.0,5.0,41,0.00,CLR,,0.00,WeatherDisplay:10.37,2013-02-07 06:30:00,
2013-02-07 01:40:00,36.7,15.7,30.13,North,357,0.0,5.0,42,0.00,CLR,,0.00,WeatherDisplay:10.37,2013-02-07 06:40:00,
2013-02-07 01:50:00,36.7,15.7,30.10,NNW,347,0.0,2.0,42,0.00,CLR,,0.00,WeatherDisplay:10.37,2013-02-07 06:50:00,
2013-02-07 01:59:00,36.7,15.7,30.10,NNW,339,0.0,2.0,42,0.00,CLR,,0.00,WeatherDisplay:10.37,2013-02-07 06:59:00,
2013-02-07 02:10:00,36.9,15.9,30.13,South,190,1.0,2.0,42,0.00,CLR,,0.00,WeatherDisplay:10.37,2013-02-07 07:10:00,
2013-02-07 02:20:00,36.9,15.9,30.10,SSE,160,0.0,1.0,42,0.00,CLR,,0.00,WeatherDisplay:10.37,2013-02-07 07:20:00,
2013-02-07 02:30:00,37.2,16.2,30.10,SW,219,0.0,3.0,42,0.00,CLR,,0.00,WeatherDisplay:10.37,2013-02-07 07:30:00,
2013-02-07 02:40:00,37.2,16.2,30.10,NW,315,0.0,3.0,42,0.00,CLR,,0.00,WeatherDisplay:10.37,2013-02-07 07:40:00,
2013-02-07 02:50:00,37.4,15.8,30.10,ESE,105,0.0,3.0,41,0.00,CLR,,0.00,WeatherDisplay:10.37,2013-02-07 07:50:00,
2013-02-07 03:00:00,37.4,15.8,30.10,SSE,158,0.0,0.0,41,0.00,CLR,,0.00,WeatherDisplay:10.37,2013-02-07 08:00:00,
2013-02-07 03:10:00,37.6,16.0,30.13,West,266,1.0,3.0,41,0.00,CLR,,0.00,WeatherDisplay:10.37,2013-02-07 08:10:00,
2013-02-07 03:20:00,37.6,16.0,30.13,NW,316,0.0,3.0,41,0.00,CLR,,0.00,WeatherDisplay:10.37,2013-02-07 08:20:00,
2013-02-07 03:30:00,37.8,16.1,30.13,NW,321,1.0,2.0,41,0.00,CLR,,0.00,WeatherDisplay:10.37,2013-02-07 08:30:00,
2013-02-07 03:40:00,37.6,16.0,30.13,NNW,332,1.0,2.0,41,0.00,CLR,,0.00,WeatherDisplay:10.37,2013-02-07 08:40:00,
2013-02-07 03:50:00,37.6,16.0,30.13,NNW,338,1.0,2.0,41,0.00,CLR,,0.00,WeatherDisplay:10.37,2013-02-07 08:50:00,
2013-02-07 03:59:00,37.9,16.3,30.13,North,1,0.0,5.0,41,0.00,CLR,,0.00,WeatherDisplay:10.37,2013-02-07 08:59:00,
2013-02-07 04:10:00,37.8,16.1,30.13,North,357,0.0,3.0,41,0.00,CLR,,0.00,WeatherDisplay:10.37,2013-02-07 09:10:00,
2013-02-07 04:20:00,37.9,15.7,30.13,NNW,339,0.0,3.0,40,0.00,CLR,,0.00,WeatherDisplay:10.37,2013-02-07 09:20:00,
2013-02-07 04:30:00,38.1,15.9,30.13,NNW,341,0.0,3.0,40,0.00,CLR,,0.00,WeatherDisplay:10.37,2013-02-07 09:30:00,
2013-02-07 04:40:00,37.9,15.7,30.13,North,353,0.0,3.0,40,0.00,CLR,,0.00,WeatherDisplay:10.37,2013-02-07 09:40:00,
2013-02-07 04:50:00,37.8,15.6,30.16,SW,219,0.0,1.0,40,0.00,CLR,,0.00,WeatherDisplay:10.37,2013-02-07 09:50:00,
2013-02-07 05:00:00,37.4,15.2,30.16,SW,215,0.0,3.0,40,0.00,CLR,,0.00,WeatherDisplay:10.37,2013-02-07 10:00:00,
2013-02-07 05:10:00,37.0,15.5,30.16,South,170,0.0,1.0,41,0.00,CLR,,0.00,WeatherDisplay:10.37,2013-02-07 10:10:00,
2013-02-07 05:20:00,36.9,15.4,30.16,WSW,244,0.0,3.0,41,0.00,CLR,,0.00,WeatherDisplay:10.37,2013-02-07 10:20:00,
2013-02-07 05:30:00,36.9,15.3,30.16,NW,308,1.0,3.0,41,0.00,CLR,,0.00,WeatherDisplay:10.37,2013-02-07 10:30:00,
2013-02-07 05:40:00,36.9,15.3,30.16,West,260,0.0,1.0,41,0.00,CLR,,0.00,WeatherDisplay:10.37,2013-02-07 10:40:00,
2013-02-07 05:50:00,37.0,15.5,30.13,SSW,198,1.0,2.0,41,0.00,CLR,,0.00,WeatherDisplay:10.37,2013-02-07 10:50:00,
2013-02-07 06:00:00,37.4,15.8,30.13,North,351,1.0,2.0,41,0.00,CLR,,0.00,WeatherDisplay:10.37,2013-02-07 11:00:00,
2013-02-07 06:10:00,37.4,15.8,30.13,West,260,0.0,2.0,41,0.00,CLR,,0.00,WeatherDisplay:10.37,2013-02-07 11:10:00,
2013-02-07 06:20:00,37.4,15.8,30.13,WSW,242,1.0,2.0,41,0.00,CLR,,0.00,WeatherDisplay:10.37,2013-02-07 11:20:00,
2013-02-07 06:30:00,37.4,15.8,30.13,West,276,0.0,1.0,41,0.00,CLR,,0.00,WeatherDisplay:10.37,2013-02-07 11:30:00,
2013-02-07 06:40:00,37.3,16.3,30.13,NW,317,1.0,1.0,42,0.00,CLR,,0.00,WeatherDisplay:10.37,2013-02-07 11:40:00,
2013-02-07 06:50:00,37.4,16.4,30.13,North,352,1.0,2.0,42,0.00,CLR,,0.00,WeatherDisplay:10.37,2013-02-07 11:50:00,
2013-02-07 07:00:00,37.6,16.5,30.13,NNW,348,2.0,4.0,42,0.00,CLR,,0.00,WeatherDisplay:10.37,2013-02-07 12:00:00,
2013-02-07 07:10:00,38.1,17.0,30.13,North,356,2.0,3.0,42,0.00,CLR,,0.00,WeatherDisplay:10.37,2013-02-07 12:10:00,
2013-02-07 07:20:00,38.3,17.2,30.13,NNW,345,1.0,3.0,42,0.00,CLR,,0.00,WeatherDisplay:10.37,2013-02-07 12:20:00,
2013-02-07 07:30:00,38.5,17.3,30.13,North,354,2.0,3.0,42,0.00,CLR,,0.00,WeatherDisplay:10.37,2013-02-07 12:30:00,
2013-02-07 07:40:00,39.0,17.3,30.13,North,4,2.0,6.0,41,0.00,CLR,,0.00,WeatherDisplay:10.37,2013-02-07 12:40:00,
2013-02-07 07:50:00,39.4,17.0,30.13,North,358,1.0,5.0,40,0.00,CLR,,0.00,WeatherDisplay:10.37,2013-02-07 12:50:00,
2013-02-07 07:59:00,39.7,16.8,30.13,North,356,2.0,4.0,39,0.00,CLR,,0.00,WeatherDisplay:10.37,2013-02-07 12:59:00,
2013-02-07 08:10:00,39.7,17.4,30.16,North,360,2.0,6.0,40,0.00,CLR,,0.00,WeatherDisplay:10.37,2013-02-07 13:10:00,
2013-02-07 08:20:00,40.3,17.3,30.16,NNE,19,2.0,5.0,39,0.00,CLR,,0.00,WeatherDisplay:10.37,2013-02-07 13:20:00,
2013-02-07 08:30:00,40.5,17.4,30.16,North,10,1.0,5.0,39,0.00,CLR,,0.00,WeatherDisplay:10.37,2013-02-07 13:30:00,
2013-02-07 08:40:00,40.8,17.7,30.13,North,2,1.0,3.0,39,0.00,CLR,,0.00,WeatherDisplay:10.37,2013-02-07 13:40:00,
2013-02-07 08:50:00,41.3,17.5,30.13,NNE,15,3.0,6.0,38,0.00,CLR,,0.00,WeatherDisplay:10.37,2013-02-07 13:50:00,
2013-02-07 09:00:00,41.7,17.9,30.13,North,6,2.0,5.0,38,0.00,CLR,,0.00,WeatherDisplay:10.37,2013-02-07 14:00:00,
2013-02-07 09:10:00,42.3,18.4,30.13,North,2,2.0,6.0,38,0.00,CLR,,0.00,WeatherDisplay:10.37,2013-02-07 14:10:00,
2013-02-07 09:20:00,42.8,17.7,30.13,NNE,24,2.0,6.0,36,0.00,CLR,,0.00,WeatherDisplay:10.37,2013-02-07 14:20:00,
2013-02-07 09:30:00,43.0,17.2,30.13,NNE,23,5.0,8.0,35,0.00,CLR,,0.00,WeatherDisplay:10.37,2013-02-07 14:30:00,
2013-02-07 09:40:00,43.2,17.3,30.13,North,3,2.0,6.0,35,0.00,CLR,,0.00,WeatherDisplay:10.37,2013-02-07 14:40:00,
2013-02-07 09:50:00,43.3,17.5,30.13,NNE,13,3.0,6.0,35,0.00,CLR,,0.00,WeatherDisplay:10.37,2013-02-07 14:50:00,
2013-02-07 10:00:00,43.3,17.5,30.13,NNE,13,3.0,6.0,35,0.00,CLR,,0.00,WeatherDisplay:10.37,2013-02-07 15:00:00,
2013-02-07 10:10:00,43.5,17.6,30.13,NNE,23,3.0,6.0,35,0.00,CLR,,0.00,WeatherDisplay:10.37,2013-02-07 15:10:00,
2013-02-07 10:20:00,43.6,18.4,30.13,NNE,30,2.0,7.0,36,0.00,CLR,,0.00,WeatherDisplay:10.37,2013-02-07 15:20:00,
2013-02-07 10:40:00,44.2,18.9,30.13,NNE,25,3.0,7.0,36,0.00,CLR,,0.00,WeatherDisplay:10.37,2013-02-07 15:40:00,
2013-02-07 10:50:00,44.8,18.8,30.13,NNE,26,3.0,6.0,35,0.00,CLR,,0.00,WeatherDisplay:10.37,2013-02-07 15:50:00,
2013-02-07 10:59:00,45.3,19.2,30.13,NNE,19,3.0,7.0,35,0.00,CLR,,0.00,WeatherDisplay:10.37,2013-02-07 15:59:00,
2013-02-07 11:10:00,45.7,19.6,30.13,NNE,31,3.0,9.0,35,0.00,CLR,,0.00,WeatherDisplay:10.37,2013-02-07 16:10:00,
2013-02-07 11:20:00,46.2,20.0,30.13,NNE,22,6.0,8.0,35,0.00,CLR,,0.00,WeatherDisplay:10.37,2013-02-07 16:20:00,
2013-02-07 11:30:00,46.8,19.8,30.13,NNE,28,3.0,9.0,34,0.00,CLR,,0.00,WeatherDisplay:10.37,2013-02-07 16:30:00,
2013-02-07 11:40:00,47.1,20.2,30.13,North,10,2.0,6.0,34,0.00,CLR,,0.00,WeatherDisplay:10.37,2013-02-07 16:40:00,
2013-02-07 11:50:00,47.7,21.4,30.13,NNE,16,3.0,8.0,35,0.00,CLR,,0.00,WeatherDisplay:10.37,2013-02-07 16:50:00,
2013-02-07 12:00:00,48.2,21.8,30.13,NNE,23,3.0,7.0,35,0.00,CLR,,0.00,WeatherDisplay:10.37,2013-02-07 17:00:00,
2013-02-07 12:10:00,48.2,20.4,30.10,NNE,27,5.0,8.0,33,0.00,CLR,,0.00,WeatherDisplay:10.37,2013-02-07 17:10:00,
2013-02-07 12:20:00,48.4,21.3,30.10,NNE,29,3.0,7.0,34,0.00,CLR,,0.00,WeatherDisplay:10.37,2013-02-07 17:20:00,
2013-02-07 12:30:00,48.7,22.3,30.10,NNE,18,5.0,8.0,35,0.00,CLR,,0.00,WeatherDisplay:10.37,2013-02-07 17:30:00,
2013-02-07 12:40:00,49.1,22.6,30.10,NE,45,6.0,8.0,35,0.00,CLR,,0.00,WeatherDisplay:10.37,2013-02-07 17:40:00,
2013-02-07 12:50:00,49.5,23.6,30.10,NNE,26,5.0,10.0,36,0.00,CLR,,0.00,WeatherDisplay:10.37,2013-02-07 17:50:00,
2013-02-07 12:59:00,50.2,23.5,30.10,NNE,27,5.0,9.0,35,0.00,CLR,,0.00,WeatherDisplay:10.37,2013-02-07 17:59:00,
2013-02-07 13:10:00,50.8,24.8,30.07,NNE,17,3.0,7.0,36,0.00,CLR,,0.00,WeatherDisplay:10.37,2013-02-07 18:10:00,
2013-02-07 13:20:00,51.5,25.4,30.07,NNE,13,2.0,8.0,36,0.00,CLR,,0.00,WeatherDisplay:10.37,2013-02-07 18:20:00,
2013-02-07 13:30:00,51.8,25.0,30.07,North,3,5.0,8.0,35,0.00,CLR,,0.00,WeatherDisplay:10.37,2013-02-07 18:30:00,
2013-02-07 13:40:00,51.9,25.8,30.07,NNE,26,3.0,7.0,36,0.00,CLR,,0.00,WeatherDisplay:10.37,2013-02-07 18:40:00,
2013-02-07 13:50:00,52.2,26.0,30.07,NNE,14,5.0,9.0,36,0.00,CLR,,0.00,WeatherDisplay:10.37,2013-02-07 18:50:00,
2013-02-07 14:00:00,52.3,26.1,30.07,NNE,33,5.0,7.0,36,0.00,CLR,,0.00,WeatherDisplay:10.37,2013-02-07 19:00:00,
2013-02-07 14:10:00,52.5,26.3,30.07,NE,36,3.0,6.0,36,0.00,CLR,,0.00,WeatherDisplay:10.37,2013-02-07 19:10:00,
2013-02-07 14:20:00,52.5,26.3,30.07,NE,51,2.0,5.0,36,0.00,CLR,,0.00,WeatherDisplay:10.37,2013-02-07 19:20:00,
2013-02-07 14:30:00,52.3,26.1,30.07,ENE,57,3.0,8.0,36,0.00,CLR,,0.00,WeatherDisplay:10.37,2013-02-07 19:30:00,
2013-02-07 14:40:00,52.1,25.9,30.07,NNE,29,5.0,7.0,36,0.00,CLR,,0.00,WeatherDisplay:10.37,2013-02-07 19:40:00,
2013-02-07 14:50:00,52.0,25.8,30.04,NNE,33,2.0,6.0,36,0.00,CLR,,0.00,WeatherDisplay:10.37,2013-02-07 19:50:00,
2013-02-07 14:59:00,52.0,25.8,30.04,NNE,31,2.0,7.0,36,0.00,CLR,,0.00,WeatherDisplay:10.37,2013-02-07 19:59:00,
2013-02-07 15:10:00,51.8,26.3,30.04,NE,38,3.0,6.0,37,0.00,CLR,,0.00,WeatherDisplay:10.37,2013-02-07 20:10:00,
2013-02-07 15:20:00,51.8,26.3,30.04,NE,50,5.0,6.0,37,0.00,CLR,,0.00,WeatherDisplay:10.37,2013-02-07 20:20:00,
2013-02-07 15:30:00,51.6,26.8,30.04,NE,48,3.0,6.0,38,0.00,CLR,,0.00,WeatherDisplay:10.37,2013-02-07 20:30:00,
2013-02-07 15:40:00,51.4,26.6,30.04,NE,35,3.0,7.0,38,0.00,CLR,,0.00,WeatherDisplay:10.37,2013-02-07 20:40:00,
2013-02-07 15:50:00,51.1,26.3,30.04,NNE,28,3.0,6.0,38,0.00,CLR,,0.00,WeatherDisplay:10.37,2013-02-07 20:50:00,
2013-02-07 15:59:00,50.7,26.6,30.04,NE,34,3.0,5.0,39,0.00,CLR,,0.00,WeatherDisplay:10.37,2013-02-07 20:59:00,
2013-02-07 16:09:00,50.4,26.3,30.04,NE,35,2.0,6.0,39,0.00,CLR,,0.00,WeatherDisplay:10.37,2013-02-07 21:09:00,
2013-02-07 16:20:00,50.2,26.8,30.04,NNE,21,2.0,5.0,40,0.00,CLR,,0.00,WeatherDisplay:10.37,2013-02-07 21:20:00,
2013-02-07 16:30:00,50.0,26.0,30.04,NE,34,2.0,6.0,39,0.00,CLR,,0.00,WeatherDisplay:10.37,2013-02-07 21:30:00,
2013-02-07 16:40:00,49.8,27.0,30.04,NNE,28,2.0,4.0,41,0.00,CLR,,0.00,WeatherDisplay:10.37,2013-02-07 21:40:00,
2013-02-07 16:50:00,49.6,26.9,30.04,NNE,31,2.0,5.0,41,0.00,CLR,,0.00,WeatherDisplay:10.37,2013-02-07 21:50:00,
2013-02-07 16:59:00,49.5,27.3,30.04,ENE,62,1.0,3.0,42,0.00,CLR,,0.00,WeatherDisplay:10.37,2013-02-07 21:59:00,
2013-02-07 17:10:00,49.5,27.3,30.04,NE,55,2.0,5.0,42,0.00,CLR,,0.00,WeatherDisplay:10.37,2013-02-07 22:10:00,
2013-02-07 17:20:00,49.5,26.7,30.04,NE,50,2.0,5.0,41,0.00,CLR,,0.00,WeatherDisplay:10.37,2013-02-07 22:20:00,
2013-02-07 17:30:00,49.3,26.5,30.04,NNE,32,1.0,5.0,41,0.00,CLR,,0.00,WeatherDisplay:10.37,2013-02-07 22:30:00,
2013-02-07 17:40:00,49.1,27.0,30.01,ENE,64,2.0,5.0,42,0.00,CLR,,0.00,WeatherDisplay:10.37,2013-02-07 22:40:00,
2013-02-07 17:50:00,48.7,26.6,30.01,ENE,67,0.0,5.0,42,0.00,CLR,,0.00,WeatherDisplay:10.37,2013-02-07 22:50:00,
2013-02-07 17:59:00,48.4,26.3,30.01,East,98,1.0,3.0,42,0.00,CLR,,0.00,WeatherDisplay:10.37,2013-02-07 22:59:00,
2013-02-07 18:10:00,48.0,27.1,30.01,East,92,1.0,3.0,44,0.00,CLR,,0.00,WeatherDisplay:10.37,2013-02-07 23:10:00,
2013-02-07 18:20:00,47.8,28.0,30.01,NE,35,2.0,4.0,46,0.00,CLR,,0.00,WeatherDisplay:10.37,2013-02-07 23:20:00,
2013-02-07 18:30:00,47.8,28.6,30.01,NE,43,1.0,5.0,47,0.00,CLR,,0.00,WeatherDisplay:10.37,2013-02-07 23:30:00,
2013-02-07 18:40:00,47.7,28.4,30.04,ENE,59,3.0,6.0,47,0.00,CLR,,0.00,WeatherDisplay:10.37,2013-02-07 23:40:00,
2013-02-07 18:50:00,47.5,28.7,30.01,NE,56,2.0,5.0,48,0.00,CLR,,0.00,WeatherDisplay:10.37,2013-02-07 23:50:00,
2013-02-07 18:59:00,47.3,28.6,30.01,ENE,69,1.0,7.0,48,0.00,CLR,,0.00,WeatherDisplay:10.37,2013-02-07 23:59:00,
2013-02-07 19:10:00,47.3,29.1,30.01,East,92,2.0,5.0,49,0.00,CLR,,0.00,WeatherDisplay:10.37,2013-02-08 00:10:00,
2013-02-07 19:20:00,47.1,28.9,30.01,East,79,1.0,4.0,49,0.00,CLR,,0.00,WeatherDisplay:10.37,2013-02-08 00:20:00,
2013-02-07 19:30:00,46.9,29.2,30.01,ENE,58,2.0,5.0,50,0.00,CLR,,0.00,WeatherDisplay:10.37,2013-02-08 00:30:00,
2013-02-07 19:40:00,46.8,29.6,30.01,NE,42,2.0,6.0,51,0.00,CLR,,0.00,WeatherDisplay:10.37,2013-02-08 00:40:00,
2013-02-07 19:50:00,46.4,29.7,30.01,NNE,24,2.0,4.0,52,0.00,CLR,,0.00,WeatherDisplay:10.37,2013-02-08 00:50:00,
2013-02-07 19:59:00,46.2,30.0,30.01,NE,38,3.0,6.0,53,0.00,CLR,,0.00,WeatherDisplay:10.37,2013-02-08 00:59:00,
2013-02-07 20:10:00,46.0,29.8,29.99,NE,48,2.0,6.0,53,0.00,CLR,,0.00,WeatherDisplay:10.37,2013-02-08 01:10:00,
2013-02-07 20:20:00,45.9,29.7,29.99,NNE,28,3.0,6.0,53,0.00,CLR,,0.00,WeatherDisplay:10.37,2013-02-08 01:20:00,
2013-02-07 20:30:00,45.7,29.5,29.99,NE,36,2.0,6.0,53,0.00,CLR,,0.00,WeatherDisplay:10.37,2013-02-08 01:30:00,
2013-02-07 20:40:00,45.3,29.6,29.99,NNE,27,2.0,5.0,54,0.00,CLR,,0.00,WeatherDisplay:10.37,2013-02-08 01:40:00,
2013-02-07 20:50:00,45.0,29.4,29.99,NE,41,5.0,7.0,54,0.00,CLR,,0.00,WeatherDisplay:10.37,2013-02-08 01:50:00,
2013-02-07 20:59:00,44.8,29.1,29.99,NE,45,2.0,6.0,54,0.00,CLR,,0.00,WeatherDisplay:10.37,2013-02-08 01:59:00,
2013-02-07 21:09:00,44.8,29.1,29.99,NNE,30,3.0,6.0,54,0.00,CLR,,0.00,WeatherDisplay:10.37,2013-02-08 02:09:00,
2013-02-07 21:20:00,44.6,29.0,29.99,NE,36,5.0,7.0,54,0.00,CLR,,0.00,WeatherDisplay:10.37,2013-02-08 02:20:00,
2013-02-07 21:29:00,44.6,29.0,29.99,NNE,33,3.0,7.0,54,0.00,CLR,,0.00,WeatherDisplay:10.37,2013-02-08 02:29:00,
2013-02-07 21:40:00,44.6,29.0,29.99,NE,38,5.0,6.0,54,0.00,CLR,,0.00,WeatherDisplay:10.37,2013-02-08 02:40:00,
2013-02-07 21:50:00,44.4,29.2,29.99,NNE,30,3.0,6.0,55,0.00,CLR,,0.00,WeatherDisplay:10.37,2013-02-08 02:50:00,
2013-02-07 21:59:00,44.2,29.1,29.99,NE,54,2.0,5.0,55,0.00,CLR,,0.00,WeatherDisplay:10.37,2013-02-08 02:59:00,
2013-02-07 22:10:00,44.1,28.9,29.95,NE,36,2.0,4.0,55,0.00,CLR,,0.00,WeatherDisplay:10.37,2013-02-08 03:10:00,
2013-02-07 22:19:00,44.1,29.4,29.95,NE,49,2.0,5.0,56,0.00,CLR,,0.00,WeatherDisplay:10.37,2013-02-08 03:19:00,
2013-02-07 22:30:00,44.1,29.4,29.95,NE,41,2.0,5.0,56,0.00,CLR,,0.00,WeatherDisplay:10.37,2013-02-08 03:30:00,
2013-02-07 22:39:00,44.1,29.4,29.95,NNE,26,3.0,6.0,56,0.00,CLR,,0.00,WeatherDisplay:10.37,2013-02-08 03:39:00,
2013-02-07 22:50:00,43.9,29.2,29.95,NNE,22,5.0,6.0,56,0.00,CLR,,0.00,WeatherDisplay:10.37,2013-02-08 03:50:00,
2013-02-07 22:59:00,43.7,29.5,29.95,NNE,26,2.0,7.0,57,0.00,CLR,,0.00,WeatherDisplay:10.37,2013-02-08 03:59:00,
2013-02-07 23:10:00,43.5,29.7,29.93,NNE,25,2.0,5.0,58,0.00,CLR,,0.00,WeatherDisplay:10.37,2013-02-08 04:10:00,
2013-02-07 23:19:00,43.3,29.5,29.93,North,357,2.0,5.0,58,0.00,CLR,,0.00,WeatherDisplay:10.37,2013-02-08 04:19:00,
2013-02-07 23:29:00,43.2,30.2,29.93,North,11,1.0,5.0,60,0.00,CLR,,0.00,WeatherDisplay:10.37,2013-02-08 04:29:00,
2013-02-07 23:39:00,43.0,30.0,29.93,North,357,2.0,5.0,60,0.00,CLR,,0.00,WeatherDisplay:10.37,2013-02-08 04:39:00,
2013-02-07 23:49:00,42.8,30.3,29.93,North,5,1.0,5.0,61,0.00,CLR,,0.00,WeatherDisplay:10.37,2013-02-08 04:49:00,
2013-02-07 23:59:00,42.8,30.3,29.93,NNW,348,2.0,4.0,61,0.00,CLR,,0.00,WeatherDisplay:10.37,2013-02-08 04:59:00,